MDT,Max TemperatureF,Mean TemperatureF,Min TemperatureF,Max Dew PointF,MeanDew PointF,Min DewpointF,Max Humidity, Mean Humidity, Min Humidity, Max Sea Level PressureIn, Mean Sea Level PressureIn, Min Sea Level PressureIn, Max VisibilityMiles, Mean VisibilityMiles, Min VisibilityMiles, Max Wind SpeedMPH, Mean Wind SpeedMPH, Max Gust SpeedMPH,PrecipitationIn, CloudCover, Events, WindDirDegrees
2013-5-1,51,32,13,22,15,10,88,54,20,30.66,30.56,30.44,10,10,10,21,7,29,0.00,2,,258
2013-5-2,67,48,29,22,19,16,63,39,15,30.65,30.45,30.25,10,10,10,24,13,32,0.00,0,,224
2013-5-3,49,42,35,43,39,20,100,72,44,30.34,30.27,30.20,10,7,1,22,11,26,0.32,7,Rain,303
2013-5-4,58,48,37,41,38,36,100,76,51,30.39,30.33,30.28,10,10,5,22,6,24,0.09,7,Rain,82
2013-5-5,68,49,29,38,33,28,100,64,28,30.27,30.15,30.00,10,9,0,12,3,15,0.00,0,Fog,257
2013-5-6,73,54,35,38,34,30,85,54,23,30.03,29.94,29.82,10,10,10,12,5,21,0.00,0,,160
2013-5-7,74,56,38,38,35,31,70,48,25,30.08,29.91,29.80,10,10,8,33,15,40,0.00,1,,339
2013-5-8,73,52,31,39,34,28,92,59,26,30.18,30.11,30.04,10,10,10,15,6,17,0.00,0,,36
2013-5-9,77,58,39,41,39,36,82,53,23,30.14,30.07,30.03,10,10,10,17,7,23,0.00,1,,172
2013-5-10,67,55,42,41,31,22,82,51,20,30.43,30.30,30.06,10,10,10,36,12,43,0.00,0,,41
2013-5-11,80,60,40,43,35,25,62,41,19,30.35,30.16,30.00,10,10,10,25,8,31,T,1,,177
2013-5-12,83,67,50,46,40,35,63,42,20,30.02,29.92,29.80,10,10,10,26,13,35,0.00,0,,226
2013-5-13,85,66,46,49,43,39,68,44,20,29.89,29.79,29.57,10,10,10,36,19,48,T,1,Rain,246
2013-5-14,70,55,40,35,27,17,56,37,17,30.01,29.91,29.82,10,10,10,29,14,43,0.00,0,,245
2013-5-15,68,51,33,30,24,21,64,41,18,30.05,29.97,29.88,10,10,10,13,5,16,0.00,1,,64
2013-5-16,68,55,42,42,34,30,83,56,28,29.86,29.83,29.78,10,10,10,17,7,25,T,4,,300
2013-5-17,65,51,36,50,42,34,93,65,36,29.94,29.90,29.84,10,10,6,16,7,21,0.10,4,Rain,275
2013-5-18,65,56,47,46,45,41,93,68,43,30.00,29.95,29.89,10,10,10,18,6,23,0.03,8,Rain,295
2013-5-19,54,51,47,48,47,45,93,88,83,30.19,30.10,30.00,10,9,4,15,9,18,0.21,8,Rain,279
2013-5-20,64,53,41,48,47,42,100,78,56,30.23,30.18,30.12,10,9,2,22,6,25,0.24,7,Rain,282
2013-5-21,73,54,35,45,36,27,93,57,20,30.13,29.94,29.77,10,10,8,28,12,35,0.00,0,,104
2013-5-22,63,55,47,46,40,38,76,61,46,29.85,29.79,29.75,10,10,9,31,19,37,0.03,4,Rain,104
2013-5-23,54,49,43,46,43,39,93,76,59,29.98,29.90,29.80,10,9,2,18,6,24,0.22,8,Rain,256
2013-5-24,65,53,41,43,37,28,96,61,26,29.97,29.89,29.84,10,10,10,36,15,44,0.01,5,Rain,239
2013-5-25,68,54,40,42,35,29,77,55,32,29.98,29.93,29.88,10,10,10,22,8,30,T,3,,204
2013-5-26,70,52,33,50,40,30,93,64,35,30.01,29.93,29.85,10,10,4,23,5,30,0.24,2,Rain-Thunderstorm,75
2013-5-27,63,53,43,48,45,42,93,72,51,29.90,29.85,29.78,10,10,5,18,8,22,T,7,Rain,264
2013-5-28,63,51,39,48,44,39,100,74,48,29.78,29.74,29.72,10,9,2,18,6,22,0.09,3,Rain,225
2013-5-29,63,55,46,70,48,43,93,77,60,30.07,29.72,29.67,10,10,10,15,5,17,0.01,7,Rain,222
2013-5-30,55,51,47,48,45,44,93,82,71,29.99,29.85,29.70,10,8,5,20,8,25,0.58,8,Rain,298
2013-5-31,51,48,45,46,44,42,93,84,74,30.32,30.13,29.98,10,8,3,23,11,30,0.62,8,Rain,278